Location: Bothwell
(41.7170°N, 112.2589°W)
Time: 01:50:56
(UTC+00:00)

Tiros 1 - Pass Details

Date: 19 May 2026
Orbit: 618 x 649 km, 48.4° (Epoch: 6 June)

Event Time Altitude Azimuth Distance (km) Brightness Sun altitude
Rises 05:15:32 0° 227° (SW) 2,926 10.4 -21.5°
Enters shadow 05:16:34 - 225° (SW) 2,526 10.1 -21.7°
Reaches altitude 10° 05:17:53 10° 223° (SW) 2,015 - -21.8°
Maximum altitude 05:22:26 56° 145° (SE) 751 - -22.2°
Exits shadow 05:26:30 13° 69° (ENE) 1,837 9.4 -22.6°
Drops below altitude 10° 05:26:57 10° 68° (ENE) 2,004 9.6 -22.7°
Sets 05:29:17 0° 64° (ENE) 2,908 10.5 -22.9°
